Powrót do katalogu

FENGYUN 1C DEB

AktywnySSO
NORAD 29968·DEBRIS·🇨🇳 China

Wystrzelony May 10, 1999 z Taiyuan Satellite Launch Center

Loading…

Następne Przeloty (najbliższe 24 godziny)

TLE

ŚwieżeSource: Space-Track

Epoka: Sep 14, 2026, 11:26 UTC

1 29968U 99025KS  26257.47653681  .00000080  00000-0  71382-4 0  9994
2 29968  98.8271 245.5536 0088957 298.9739 225.7503 14.07416454  9240

Śledź FENGYUN 1C DEB w czasie rzeczywistym z AllMySat

Download on the App Store